Location: Castellare
(42.4669°N, 9.4728°E)
Time: 10:47:58
(UTC+00:00)

Okean O Rocket - Pass Details

Date: 17 February 2020
Orbit: 622 x 645 km, 98.2° (Epoch: 04 April)

Event Time Altitude Azimuth Distance (km) Brightness Sun altitude
Rises 04:57:00 0° 16° (NNE) 2,934 5.2 -15.4°
Reaches altitude 10° 04:59:14 10° 19° (NNE) 2,018 4.4 -15.0°
Maximum altitude 05:03:35 63° 101° (ESE) 700 2.1 -14.2°
Drops below altitude 10° 05:07:53 10° 183° (S) 1,990 4.2 -13.4°
Sets 05:10:04 0° 187° (S) 2,890 5.0 -13.0°
